This is the latest recevied weather packets stored in our database for station/object HP3ICC-23. If no packets are shown the sender has not sent any weather packets the latest 10 day(s).
| Time | Temp. | Humidity | Pressure | Rain* | Wind** | Luminosity | Snow |
|---|---|---|---|---|---|---|---|
| 1777848108 | 17.78° C | 82% | 1011 hPa | 1.02 mm | - | - | - |
| 1777846968 | 18.33° C | 82% | 1010 hPa | 1.27 mm | - | - | - |
| 1777846907 | 18.33° C | 82% | 1010 hPa | 1.27 mm | - | - | - |
| 1777845767 | 18.89° C | 82% | 1011 hPa | 1.02 mm | - | - | - |
| 1777845707 | 18.89° C | 82% | 1011 hPa | 1.02 mm | - | - | - |
| 1777844567 | 16.67° C | 73% | 1011 hPa | 1.02 mm | - | - | - |
| 1777844506 | 16.67° C | 73% | 1011 hPa | 1.02 mm | - | - | - |
| 1777843366 | 17.78° C | 73% | 1010 hPa | 0.51 mm | - | - | - |
| 1777843306 | 17.78° C | 73% | 1010 hPa | 0.51 mm | - | - | - |
| 1777842166 | 17.78° C | 74% | 1011 hPa | 0 mm | - | - | - |
| 1777842106 | 17.78° C | 74% | 1011 hPa | 0 mm | - | - | - |
| 1777840965 | 18.33° C | 74% | 1011 hPa | 0 mm | - | - | - |
| 1777840905 | 18.33° C | 74% | 1011 hPa | 0 mm | - | - | - |
| 1777839764 | 18.89° C | 74% | 1010 hPa | 0.25 mm | - | - | - |
| 1777839704 | 18.89° C | 74% | 1010 hPa | 0.25 mm | - | - | - |
| 1777838564 | 18.33° C | 78% | 1012 hPa | 0 mm | - | - | - |
| 1777838504 | 18.33° C | 78% | 1012 hPa | 0 mm | - | - | - |
| 1777837303 | 18.89° C | 78% | 1012 hPa | 0.25 mm | - | - | - |
| 1777836163 | 18.89° C | 75% | 1012 hPa | 0 mm | - | - | - |
| 1777836103 | 18.89° C | 75% | 1012 hPa | 0 mm | - | - | - |
| 1777834963 | 18.89° C | 76% | 1012 hPa | 0 mm | - | - | - |
| 1777834902 | 18.89° C | 76% | 1012 hPa | 0 mm | - | - | - |
| 1777833762 | 18.89° C | 76% | 1012 hPa | 0 mm | - | - | - |
| 1777833702 | 18.89° C | 76% | 1012 hPa | 0 mm | - | - | - |
| 1777832561 | 17.78° C | 79% | 1013 hPa | 0 mm | - | - | - |
* Rain latest hour (hover to see other rain measurements)
** Current wind speed in m/s (hover to see current wind gust speed)